Location: Deer Lodge Site
(39.6809°N, 119.9392°W)
Time: 02:47:48
(UTC-07:00)

Amateur Radio Satellites - All Passes

Search period start: 27 May 2015 02:17
Search period end: 28 May 2015 02:17
Location: Deer Lodge Site, 39.6809°N, 119.9392°W

Satellite Date Start Highest point End Downlink Frequencies (MHz)
Time Altitude Azimuth
PCSat 27 May 02:21:37 02:26:25 31° 309° (NW) 02:31:11 145.827
ISS 27 May 02:33:08 02:34:11 11° 352° (N) 02:35:13 145.825
DANDE 27 May 02:33:49 02:37:25 14° 283° (WNW) 02:40:17 436.750
ITUPSAT 1 27 May 02:37:41 02:42:02 34° 263° (W) 02:46:21 437.325
BEESAT 3 27 May 02:41:01 02:44:45 33° 51° (NE) 02:48:27 437.485
BEESAT 27 May 02:45:39 02:49:47 28° 265° (W) 02:53:50 436.000
PHONESAT 2.4 27 May 02:46:32 02:49:20 23° 151° (SSE) 02:52:10 2401.200-2431.200
KKS-1 27 May 02:47:52 02:52:14 56° 74° (ENE) 02:56:39 437.445
SWISSCUBE 27 May 02:54:45 02:58:25 21° 267° (W) 03:01:58 437.505
Oscar 19 27 May 02:58:38 03:03:44 59° 286° (WNW) 03:08:45 437.125/150
Cosmos 2499 27 May 02:59:49 03:06:53 78° 265° (W) 03:14:03 435.465 / 435.565
ITAMSAT 1 27 May 03:12:40 03:17:48 55° 100° (E) 03:22:56 435.822/435.867
SO-50 27 May 03:14:35 03:19:06 55° 118° (ESE) 03:23:50 436.795
AO-7 27 May 03:15:15 03:16:39 11° 84° (E) 03:18:54 29.400- 29.500
AIST 2 27 May 03:20:23 03:23:44 22° 47° (NE) 03:27:05 435.215
BEESAT 2 27 May 03:29:40 03:33:47 89° 58° (ENE) 03:37:50 435.950
HORYU 2 27 May 03:34:45 03:36:23 12° 89° (E) 03:38:16 437.375
Gurwin Techsat 1B 27 May 03:50:50 03:56:09 70° 286° (WNW) 04:01:25 435.225
STARS 27 May 03:52:01 03:56:18 46° 261° (W) 04:00:36 437.465
VERMONT LUNAR 27 May 03:54:07 03:57:20 79° 357° (N) 04:00:32 437.305
JAS-2 27 May 04:02:15 04:06:28 26° 94° (E) 04:10:55 435.910
ISS 27 May 04:10:12 04:11:43 13° 12° (NNE) 04:13:17 145.825
MOZHAYETS 4 27 May 04:17:44 04:21:57 39° 72° (ENE) 04:26:13
BEESAT 3 27 May 04:19:26 04:22:33 21° 248° (WSW) 04:25:32 437.485
PHONESAT 2.4 27 May 04:23:42 04:27:11 78° 168° (SSE) 04:30:39 2401.200-2431.200
KKS-1 27 May 04:27:04 04:29:17 13° 271° (W) 04:31:16 437.445
ITAMSAT 1 27 May 04:53:16 04:56:55 19° 296° (WNW) 05:00:24 435.822/435.867
SO-50 27 May 04:56:23 05:00:02 21° 317° (NW) 05:03:40 436.795
Cosmos 2499 27 May 04:57:45 04:59:00 10° 281° (W) 04:59:38 435.465 / 435.565
AIST 2 27 May 04:58:32 05:02:26 36° 245° (WSW) 05:06:13 435.215
AO-7 27 May 05:02:53 05:11:14 68° 104° (ESE) 05:19:34 29.400- 29.500
HORYU 2 27 May 05:09:08 05:13:30 58° 286° (WNW) 05:17:49 437.375
Cosmos 2491 27 May 05:28:20 05:34:47 23° 64° (ENE) 05:41:33 435.465 / 435.565
VERMONT LUNAR 27 May 05:31:22 05:34:35 88° 194° (SSW) 05:37:48 437.305
STRAND 1 27 May 05:44:29 05:46:41 13° 62° (ENE) 05:49:07 437.568
ISS 27 May 05:45:44 05:48:50 40° 31° (NNE) 05:51:57 145.825
JAS-2 27 May 05:47:04 05:51:45 34° 290° (WNW) 05:56:28 435.910
MOZHAYETS 4 27 May 05:56:02 05:59:22 19° 268° (W) 06:02:34
CUBESAT XI-V 27 May 05:57:01 06:01:08 35° 71° (ENE) 06:05:21 437.345
M-CUBED/EXP-1 PRIME 27 May 06:00:40 06:01:57 12° 62° (ENE) 06:03:24 437.505
PHONESAT 2.4 27 May 06:01:53 06:05:22 76° 5° (N) 06:08:49 2401.200-2431.200
AUBIESAT-1 27 May 06:08:25 06:09:54 12° 62° (ENE) 06:11:32 437.475
YUBILEINY 27 May 06:20:47 06:26:17 20° 81° (E) 06:32:14 435.215
AO-7 27 May 06:56:36 07:03:29 29° 302° (WNW) 07:10:08 29.400- 29.500
CUTE-I 27 May 07:06:05 07:11:20 55° 100° (E) 07:16:36 437.470
VERMONT LUNAR 27 May 07:08:49 07:11:35 27° 206° (SSW) 07:14:20 437.305
PRISM 27 May 07:14:14 07:18:18 70° 258° (WSW) 07:22:23 437.425
STRAND 1 27 May 07:20:13 07:25:18 77° 257° (WSW) 07:30:26 437.568
ISS 27 May 07:22:32 07:25:06 21° 227° (SW) 07:27:37 145.825
Cosmos 2491 27 May 07:23:55 07:32:45 76° 265° (W) 07:41:29 435.465 / 435.565
Cubesat XI-IV 27 May 07:26:41 07:32:05 86° 103° (ESE) 07:37:28 437.490
M-CUBED/EXP-1 PRIME 27 May 07:32:15 07:36:29 63° 254° (WSW) 07:40:24 437.505
BRITE-PL 27 May 07:34:56 07:35:36 10° 83° (E) 07:36:40 437.365/2234.400
CUBESAT XI-V 27 May 07:35:06 07:38:42 22° 268° (W) 07:42:12 437.345
AIST 1 27 May 07:35:37 07:39:37 34° 76° (ENE) 07:43:40
PHONESAT 2.4 27 May 07:40:03 07:43:26 52° 200° (SSW) 07:46:49 2401.200-2431.200
AUBIESAT-1 27 May 07:40:13 07:44:23 58° 254° (WSW) 07:48:15 437.475
RS-15 27 May 07:41:53 07:49:35 24° 104° (ESE) 07:57:55 29.354- 29.394
YUBILEINY 27 May 08:13:25 08:22:12 81° 278° (W) 08:31:00 435.215
DOVE 4 27 May 08:33:31 08:36:17 15° 87° (E) 08:39:12 437.250
CUTE-I 27 May 08:47:12 08:51:03 20° 296° (WNW) 08:54:42 437.470
CANX-2 27 May 08:57:08 09:00:33 24° 94° (E) 09:04:03 2200.000
CUTE 1.7 + AOD 2 27 May 09:00:39 09:04:03 24° 94° (E) 09:07:30 437.475
HO-68 27 May 09:06:28 09:13:00 38° 97° (E) 09:19:36 435.675
Cubesat XI-IV 27 May 09:09:05 09:11:32 13° 299° (WNW) 09:13:43 437.490
BRITE-PL 27 May 09:09:23 09:15:05 86° 100° (E) 09:20:29 437.365/2234.400
GOMX 1 27 May 09:10:24 09:15:42 57° 99° (E) 09:20:41 467.674
AIST 1 27 May 09:13:57 09:17:03 18° 272° (W) 09:20:01
Cosmos 2504 27 May 09:15:50 09:22:18 27° 86° (E) 09:28:42 435.465 / 435.565
PHONESAT 2.4 27 May 09:19:24 09:21:06 13° 214° (SSW) 09:22:44 2401.200-2431.200
SEEDS 27 May 09:22:24 09:26:13 34° 97° (E) 09:30:03 437.485
Cosmos 2491 27 May 09:24:21 09:28:17 13° 283° (WNW) 09:31:30 435.465 / 435.565
PCSat 27 May 09:26:36 09:31:12 28° 50° (NE) 09:35:51 145.827
TIGRISAT 27 May 09:31:59 09:34:14 14° 65° (ENE) 09:36:41 435.000
COMPASS 1 27 May 09:35:01 09:38:53 38° 97° (E) 09:42:46 437.405
CINEMA 3 27 May 09:44:56 09:49:18 37° 96° (E) 09:53:30 145.822/145.860
UWE-3 27 May 09:45:28 09:47:38 14° 89° (E) 09:50:00 435.000/436.395/437.385
AAUSAT CUBESAT 2 27 May 09:46:46 09:50:44 45° 98° (E) 09:54:42 437.432
RS-15 27 May 09:49:52 10:00:47 82° 304° (WNW) 10:12:01 29.354- 29.394
UNISAT 6 27 May 09:51:08 09:54:41 22° 68° (ENE) 09:58:19 437.425
FUNcube-1 27 May 09:54:40 09:56:36 13° 89° (E) 09:58:45 145.935
DOVE 4 27 May 10:09:31 10:14:34 58° 286° (WNW) 10:19:18 437.250
DELFI C3 27 May 10:11:47 10:15:11 27° 95° (E) 10:18:39 145.870
YUBILEINY 27 May 10:15:31 10:20:45 16° 301° (WNW) 10:25:25 435.215
NANOSAT C BR1 27 May 10:20:03 10:22:58 19° 67° (ENE) 10:26:00 145.865
HUMSAT D 27 May 10:26:08 10:28:02 13° 90° (E) 10:30:07 437.325/437.525
QB50P2 27 May 10:27:53 10:31:15 23° 69° (ENE) 10:34:42 145.880/145.840
CANX-2 27 May 10:32:54 10:36:28 26° 290° (WNW) 10:39:56 2200.000
ANTELSAT 27 May 10:33:15 10:37:53 61° 74° (ENE) 10:42:29 437.575/2403.000
CUBEBUG 2 27 May 10:33:44 10:38:10 63° 100° (E) 10:42:25 437.445
ZACube-1 27 May 10:33:46 10:37:48 38° 97° (E) 10:41:45 437.345
UKube-1 27 May 10:35:38 10:38:25 17° 92° (E) 10:41:20 .
CUTE 1.7 + AOD 2 27 May 10:36:23 10:39:57 26° 290° (WNW) 10:43:27 437.475
POPSAT HIP 1 27 May 10:39:37 10:43:21 30° 70° (ENE) 10:47:09 437.405
DUCHIFAT 1 27 May 10:41:12 10:44:56 30° 71° (ENE) 10:48:43 145.980
DX 1 27 May 10:44:28 10:47:57 23° 94° (E) 10:51:30 434.975-435.025
Oscar 11 27 May 10:45:04 10:49:24 85° 286° (WNW) 10:53:42 145.826/435.025
GOMX 1 27 May 10:49:38 10:53:19 19° 296° (WNW) 10:56:44 467.674
BRITE-PL 27 May 10:49:58 10:52:50 14° 299° (WNW) 10:55:21 437.365/2234.400
HO-68 27 May 10:54:11 11:00:46 40° 294° (WNW) 11:07:14 435.675
SEEDS 27 May 10:58:49 11:01:48 19° 292° (WNW) 11:04:40 437.485
VELOX 1 27 May 11:00:39 11:03:36 18° 92° (E) 11:06:41 145.980
BUGSAT 1 27 May 11:02:15 11:06:02 35° 71° (ENE) 11:09:53 437.445
TIGRISAT 27 May 11:05:51 11:10:31 63° 259° (W) 11:15:09 435.000
ESTCUBE 1 27 May 11:06:19 11:07:51 12° 89° (E) 11:09:40 437.505/2401.250
Cosmos 2504 27 May 11:07:04 11:15:19 59° 282° (WNW) 11:23:00 435.465 / 435.565
PCSat 27 May 11:09:40 11:14:48 43° 248° (WSW) 11:19:52 145.827
COMPASS 1 27 May 11:11:34 11:14:18 17° 292° (WNW) 11:16:54 437.405
50 SAT 27 May 11:15:18 11:18:33 26° 95° (E) 11:21:50 437.505
UWE-3 27 May 11:20:19 11:24:34 47° 286° (WNW) 11:28:39 435.000/436.395/437.385
CINEMA 3 27 May 11:22:41 11:26:15 21° 293° (WNW) 11:29:36 145.822/145.860
QB50P1 27 May 11:23:00 11:27:17 86° 257° (WSW) 11:31:36 145.935-145.965
AAUSAT CUBESAT 2 27 May 11:23:39 11:26:01 15° 293° (WNW) 11:28:13 437.432
POLYITAN 1 27 May 11:25:14 11:29:32 80° 256° (WSW) 11:33:53 437.675
UNISAT 6 27 May 11:26:55 11:31:16 36° 263° (W) 11:35:34 437.425
FUNcube-1 27 May 11:29:09 11:33:20 49° 286° (WNW) 11:37:23 145.935
AISAT 27 May 11:31:30 11:35:43 39° 98° (E) 11:39:57 437.250
SO-50 27 May 11:46:50 11:51:32 41° 51° (NE) 11:56:11 436.795
DELFI C3 27 May 11:47:03 11:50:12 22° 291° (WNW) 11:53:14 145.870
NANOSAT C BR1 27 May 11:54:34 11:58:33 37° 263° (W) 12:02:33 145.865
HUMSAT D 27 May 12:00:07 12:04:07 46° 287° (WNW) 12:08:03 437.325/437.525
QB50P2 27 May 12:03:15 12:07:01 29° 264° (W) 12:10:46 145.880/145.840
RS-15 27 May 12:06:04 12:15:16 28° 331° (NNW) 12:24:31 29.354- 29.394
UKube-1 27 May 12:10:40 12:14:46 40° 288° (WNW) 12:18:49 .
ZACube-1 27 May 12:10:54 12:13:53 18° 293° (WNW) 12:16:42 437.345
CUBEBUG 2 27 May 12:12:28 12:14:19 12° 296° (WNW) 12:15:57 437.445
ANTELSAT 27 May 12:12:48 12:15:06 13° 271° (W) 12:17:08 437.575/2403.000
DANDE 27 May 12:13:59 12:19:12 23° 82° (E) 12:25:21 436.750
POPSAT HIP 1 27 May 12:15:51 12:19:16 22° 266° (W) 12:22:36 437.405
DUCHIFAT 1 27 May 12:17:25 12:20:47 22° 267° (W) 12:24:04 145.980
JUGNU 27 May 12:18:05 12:18:35 10° 180° (S) 12:19:05 437.505
DX 1 27 May 12:20:21 12:24:13 30° 290° (WNW) 12:28:01 434.975-435.025
CUBEBUG 1 27 May 12:32:40 12:37:08 86° 284° (WNW) 12:41:35 437.445
VELOX 1 27 May 12:36:08 12:40:22 41° 288° (WNW) 12:44:33 145.980
Oscar 19 27 May 12:36:44 12:40:38 23° 66° (ENE) 12:44:41 437.125/150
BUGSAT 1 27 May 12:38:44 12:41:39 18° 268° (W) 12:44:28 437.445
CUSAT 1 27 May 12:39:56 12:46:46 46° 90° (E) 12:54:34 437.405
ESTCUBE 1 27 May 12:40:44 12:45:13 62° 286° (WNW) 12:49:42 437.505/2401.250
GONETS M04 27 May 12:43:07 12:50:55 38° 87° (E) 12:58:55
50 SAT 27 May 12:50:12 12:53:09 21° 291° (WNW) 12:56:01 437.505
AISAT 27 May 13:08:48 13:12:03 19° 293° (WNW) 13:15:10 437.250
SPROUT 27 May 13:09:34 13:13:53 67° 101° (E) 13:18:10 437.525
SO-50 27 May 13:27:51 13:31:53 25° 248° (WSW) 13:35:46 436.795
TISAT 1 27 May 13:30:47 13:35:05 83° 102° (ESE) 13:39:20 437.305
Gurwin Techsat 1B 27 May 13:32:55 13:36:47 22° 65° (ENE) 13:40:48 435.225
Cosmos 2499 27 May 13:46:22 13:50:04 15° 82° (E) 13:54:10 435.465 / 435.565
DANDE 27 May 13:54:24 14:01:31 74° 282° (WNW) 14:10:01 436.750
AO-7 27 May 14:12:07 14:17:12 19° 53° (NE) 14:22:41 29.400- 29.500
Oscar 19 27 May 14:14:46 14:19:44 44° 262° (W) 14:24:42 437.125/150
JAS-2 27 May 14:16:25 14:18:50 13° 62° (ENE) 14:21:30 435.910
CUSAT 1 27 May 14:22:39 14:29:36 39° 291° (WNW) 14:37:14 437.405
RS-15 27 May 14:25:38 14:32:58 19° 5° (N) 14:40:36 29.354- 29.394
ITAMSAT 1 27 May 14:29:48 14:34:57 77° 76° (ENE) 14:40:10 435.822/435.867
HORYU 2 27 May 14:33:08 14:34:33 12° 64° (ENE) 14:36:13 437.375
ITUPSAT 1 27 May 14:38:29 14:43:15 64° 102° (ESE) 14:48:01 437.325
GONETS M04 27 May 14:39:14 14:47:40 46° 286° (WNW) 14:56:02
KKS-1 27 May 14:42:12 14:43:31 11° 89° (E) 14:45:06 437.445
BEESAT 27 May 14:45:47 14:50:35 78° 103° (ESE) 14:55:21 436.000
O/OREOS (USA 219) 27 May 14:47:16 14:49:51 16° 101° (E) 14:52:37 437.305
SPROUT 27 May 14:47:57 14:49:28 11° 296° (WNW) 14:50:46 437.525
SWISSCUBE 27 May 14:54:23 14:59:12 79° 284° (WNW) 15:03:59 437.505
Gurwin Techsat 1B 27 May 15:11:21 15:16:28 48° 261° (W) 15:21:36 435.225
Cosmos 2499 27 May 15:34:13 15:42:25 88° 98° (E) 15:50:01 435.465 / 435.565
DANDE 27 May 15:41:58 15:46:38 16° 305° (NW) 15:51:07 436.750
STARS 27 May 15:42:41 15:46:41 33° 97° (E) 15:50:41 437.465
JAS-2 27 May 15:56:39 16:03:24 83° 76° (ENE) 16:09:22 435.910
AO-7 27 May 16:00:39 16:08:56 82° 71° (ENE) 16:17:18 29.400- 29.500
HORYU 2 27 May 16:06:12 16:10:41 71° 258° (WSW) 16:15:10 437.375
ITAMSAT 1 27 May 16:13:09 16:15:09 12° 272° (W) 16:16:50 435.822/435.867
KKS-1 27 May 16:16:13 16:20:40 63° 286° (WNW) 16:25:03 437.445
ITUPSAT 1 27 May 16:18:05 16:20:41 14° 296° (WNW) 16:23:03 437.325
O/OREOS (USA 219) 27 May 16:24:35 16:28:56 46° 296° (WNW) 16:33:17 437.305
BEESAT 27 May 16:26:04 16:27:51 12° 298° (WNW) 16:29:22 436.000
RS-15 27 May 16:39:49 16:50:08 37° 38° (NE) 17:01:03 29.354- 29.394
CUTE-I 27 May 16:52:03 16:53:06 11° 60° (ENE) 16:54:29 437.470
Cubesat XI-IV 27 May 17:10:30 17:13:42 17° 63° (ENE) 17:17:06 437.490
STARS 27 May 17:19:31 17:22:58 22° 292° (WNW) 17:26:17 437.465
BEESAT 2 27 May 17:23:27 17:26:25 20° 112° (ESE) 17:29:31 435.950
Cosmos 2499 27 May 17:31:37 17:36:38 17° 296° (WNW) 17:41:03 435.465 / 435.565
JAS-2 27 May 17:45:35 17:49:05 14° 271° (W) 17:52:02 435.910
MOZHAYETS 4 27 May 17:50:18 17:54:53 77° 283° (WNW) 17:59:27
AO-7 27 May 17:56:57 18:02:48 20° 270° (W) 18:08:13 29.400- 29.500
BEESAT 3 27 May 18:10:12 18:14:16 84° 123° (ESE) 18:18:24 437.485
YUBILEINY 27 May 18:24:49 18:33:09 49° 75° (ENE) 18:41:31 435.215
CUTE-I 27 May 18:27:08 18:32:26 82° 76° (ENE) 18:37:48 437.470
Cosmos 2491 27 May 18:29:15 18:35:56 26° 83° (E) 18:42:59 435.465 / 435.565
BRITE-PL 27 May 18:44:28 18:46:07 12° 60° (ENE) 18:48:05 437.365/2234.400
Cubesat XI-IV 27 May 18:48:04 18:53:19 64° 258° (WSW) 18:58:38 437.490
RS-15 27 May 18:52:08 19:03:48 76° 242° (WSW) 19:15:53 29.354- 29.394
AIST 2 27 May 18:55:02 18:59:11 56° 118° (ESE) 19:03:24 435.215
PRISM 27 May 18:58:21 19:01:00 17° 92° (E) 19:03:48 437.425
BEESAT 2 27 May 19:00:28 19:04:17 36° 308° (NW) 19:08:09 435.950
CUBESAT XI-V 27 May 19:31:09 19:35:53 83° 285° (WNW) 19:40:36 437.345
STRAND 1 27 May 19:31:45 19:36:31 38° 97° (E) 19:41:19 437.568
HO-68 27 May 19:34:52 19:40:37 28° 62° (ENE) 19:46:32 435.675
DOVE 4 27 May 19:38:04 19:41:07 16° 64° (ENE) 19:44:25 437.250
CANX-2 27 May 19:50:06 19:52:48 17° 68° (ENE) 19:55:39 2200.000
BEESAT 3 27 May 19:51:08 19:52:53 12° 320° (NW) 19:54:30 437.485
CUTE 1.7 + AOD 2 27 May 19:53:34 19:56:13 17° 68° (ENE) 19:59:02 437.475
AIST 1 27 May 20:05:00 20:08:08 21° 89° (E) 20:11:25
CUTE-I 27 May 20:11:32 20:13:18 11° 273° (W) 20:14:41 437.470
SEEDS 27 May 20:14:06 20:17:23 23° 70° (ENE) 20:20:45 437.485
GOMX 1 27 May 20:16:52 20:21:52 55° 73° (ENE) 20:27:11 467.674
BRITE-PL 27 May 20:18:40 20:23:45 86° 81° (E) 20:29:17 437.365/2234.400
YUBILEINY 27 May 20:22:06 20:29:46 35° 274° (W) 20:37:15 435.215
Cosmos 2491 27 May 20:23:28 20:32:12 65° 281° (WNW) 20:40:59 435.465 / 435.565
COMPASS 1 27 May 20:25:49 20:29:11 24° 70° (ENE) 20:32:37 437.405
PRISM 27 May 20:32:46 20:36:37 37° 288° (WNW) 20:40:27 437.425
AIST 2 27 May 20:35:13 20:38:09 17° 316° (NW) 20:40:58 435.215
AAUSAT CUBESAT 2 27 May 20:37:00 20:40:31 28° 71° (ENE) 20:44:07 437.432
UWE-3 27 May 20:42:24 20:44:24 13° 65° (ENE) 20:46:36 435.000/436.395/437.385
CINEMA 3 27 May 20:45:13 20:49:40 34° 71° (ENE) 20:54:15 145.822/145.860
M-CUBED/EXP-1 PRIME 27 May 20:49:02 20:52:19 66° 290° (WNW) 20:55:37 437.505
FUNcube-1 27 May 20:50:34 20:52:02 12° 64° (ENE) 20:53:45 145.935
AUBIESAT-1 27 May 20:56:20 20:59:36 62° 290° (WNW) 21:02:54 437.475
DELFI C3 27 May 20:59:22 21:01:47 16° 68° (ENE) 21:04:20 145.870
Cosmos 2504 27 May 21:00:37 21:07:28 46° 75° (ENE) 21:14:22 435.465 / 435.565
RS-15 27 May 21:07:41 21:14:47 17° 259° (W) 21:21:00 29.354- 29.394
STRAND 1 27 May 21:11:21 21:15:34 25° 293° (WNW) 21:19:39 437.568
DOVE 4 27 May 21:13:13 21:18:18 66° 259° (W) 21:23:36 437.250
HO-68 27 May 21:20:53 21:27:57 58° 259° (WSW) 21:35:02 435.675
CANX-2 27 May 21:24:26 21:28:28 40° 262° (W) 21:32:29 2200.000
CUTE 1.7 + AOD 2 27 May 21:27:49 21:31:52 40° 262° (W) 21:35:53 437.475
ZACube-1 27 May 21:28:44 21:32:41 30° 71° (ENE) 21:36:42 437.345
CUBEBUG 2 27 May 21:30:29 21:35:05 49° 73° (ENE) 21:39:41 437.445
UKube-1 27 May 21:30:36 21:32:48 14° 65° (ENE) 21:35:11 .
Oscar 11 27 May 21:38:45 21:43:02 66° 75° (ENE) 21:47:20 145.826/435.025
DX 1 27 May 21:39:49 21:42:51 19° 67° (ENE) 21:46:02 434.975-435.025
AIST 1 27 May 21:41:56 21:45:39 28° 285° (WNW) 21:49:22
SEEDS 27 May 21:49:23 21:53:05 28° 265° (W) 21:56:43 437.485
GOMX 1 27 May 21:56:51 22:00:27 18° 272° (W) 22:03:57 467.674
VELOX 1 27 May 21:58:15 22:00:44 15° 65° (ENE) 22:03:24 145.980
50 SAT 27 May 22:00:12 22:02:27 15° 67° (ENE) 22:04:51 437.505
COMPASS 1 27 May 22:01:15 22:04:48 26° 265° (W) 22:08:17 437.405
BRITE-PL 27 May 22:01:54 22:03:14 11° 277° (W) 22:04:11 437.365/2234.400
ESTCUBE 1 27 May 22:06:29 22:07:28 11° 63° (ENE) 22:08:42 437.505/2401.250
AAUSAT CUBESAT 2 27 May 22:12:49 22:16:09 22° 266° (W) 22:19:24 437.432
UWE-3 27 May 22:15:45 22:20:25 68° 259° (W) 22:25:06 435.000/436.395/437.385
CINEMA 3 27 May 22:22:41 22:26:54 27° 267° (W) 22:31:06 145.822/145.860
FUNcube-1 27 May 22:23:15 22:27:50 73° 259° (W) 22:32:25 145.935
ISS 27 May 22:25:11 22:27:22 17° 132° (SE) 22:29:39 145.825
Cosmos 2491 27 May 22:28:04 22:31:22 12° 306° (NW) 22:33:58 435.465 / 435.565
ANTELSAT 27 May 22:28:19 22:30:03 12° 89° (E) 22:32:00 437.575/2403.000
AISAT 27 May 22:28:35 22:32:31 32° 71° (ENE) 22:36:33 437.250
DELFI C3 27 May 22:32:50 22:36:37 38° 262° (W) 22:40:24 145.870
HUMSAT D 27 May 22:50:23 22:54:44 77° 259° (W) 22:59:03 437.325/437.525
Cosmos 2504 27 May 22:54:33 23:00:37 29° 273° (W) 23:06:30 435.465 / 435.565
GONETS M04 27 May 22:55:09 23:00:21 17° 60° (ENE) 23:06:02
DANDE 27 May 22:57:10 23:01:58 18° 57° (ENE) 23:06:30 436.750
TIGRISAT 27 May 22:59:07 23:02:49 27° 95° (E) 23:06:30 435.000
UKube-1 27 May 23:04:19 23:08:32 52° 260° (W) 23:12:48 .
ZACube-1 27 May 23:05:10 23:09:03 26° 266° (W) 23:12:50 437.345
CUBEBUG 2 27 May 23:08:56 23:12:04 17° 270° (W) 23:15:01 437.445
QB50P1 27 May 23:10:12 23:12:51 16° 91° (E) 23:15:39 145.935-145.965
POLYITAN 1 27 May 23:12:37 23:15:29 18° 92° (E) 23:18:27 437.675
DX 1 27 May 23:14:49 23:18:52 37° 262° (W) 23:22:56 434.975-435.025
Oscar 11 27 May 23:19:11 23:19:45 10° 272° (W) 23:20:01 145.826/435.025
UNISAT 6 27 May 23:19:38 23:23:52 48° 99° (E) 23:28:02 437.425
CUSAT 1 27 May 23:21:14 23:27:21 31° 66° (ENE) 23:32:24 437.405
CUBEBUG 1 27 May 23:27:46 23:32:05 70° 75° (ENE) 23:36:28 437.445
VELOX 1 27 May 23:32:36 23:36:55 50° 260° (W) 23:41:16 145.980
50 SAT 27 May 23:33:05 23:36:52 40° 262° (W) 23:40:39 437.505
ESTCUBE 1 27 May 23:39:19 23:43:47 75° 258° (WSW) 23:48:17 437.505/2401.250
NANOSAT C BR1 27 May 23:40:11 23:44:07 35° 97° (E) 23:48:02 145.865
QB50P2 27 May 23:48:51 23:52:59 46° 99° (E) 23:57:06 145.880/145.840
ISS 28 May 00:00:26 00:03:34 46° 327° (NNW) 00:06:43 145.825
POPSAT HIP 1 28 May 00:00:46 00:05:02 63° 101° (E) 00:09:15 437.405
DUCHIFAT 1 28 May 00:01:50 00:06:05 63° 101° (E) 00:10:16 145.980
SPROUT 28 May 00:02:47 00:06:53 45° 73° (ENE) 00:11:04 437.525
ANTELSAT 28 May 00:03:00 00:07:17 53° 286° (WNW) 00:11:27 437.575/2403.000
AISAT 28 May 00:05:40 00:09:11 22° 266° (W) 00:12:38 437.250
PCSat 28 May 00:07:51 00:12:17 27° 109° (ESE) 00:16:52 145.827
BUGSAT 1 28 May 00:20:09 00:24:26 70° 101° (E) 00:28:40 437.445
TISAT 1 28 May 00:21:53 00:26:02 54° 74° (ENE) 00:30:12 437.305
SWISSCUBE 28 May 00:25:51 00:27:28 12° 63° (ENE) 00:29:21 437.505
TIGRISAT 28 May 00:35:54 00:39:30 25° 291° (WNW) 00:42:57 435.000
DANDE 28 May 00:38:53 00:46:42 86° 262° (W) 00:52:42 436.750
QB50P1 28 May 00:44:56 00:48:57 40° 288° (WNW) 00:52:55 145.935-145.965
POLYITAN 1 28 May 00:47:35 00:51:34 37° 288° (WNW) 00:55:27 437.675
GONETS M04 28 May 00:49:56 00:58:48 87° 84° (E) 01:07:32
O/OREOS (USA 219) 28 May 00:56:22 01:00:09 27° 59° (ENE) 01:03:59 437.305
UNISAT 6 28 May 00:57:43 01:00:17 15° 295° (WNW) 01:02:39 437.425
CUSAT 1 28 May 01:03:46 01:10:16 41° 271° (W) 01:15:19 437.405
NANOSAT C BR1 28 May 01:16:38 01:19:44 19° 292° (WNW) 01:22:42 145.865
VERMONT LUNAR 28 May 01:21:55 01:24:43 27° 154° (SSE) 01:27:32 437.305
QB50P2 28 May 01:25:58 01:28:32 15° 294° (WNW) 01:30:56 145.880/145.840
Cosmos 2499 28 May 01:27:02 01:32:42 26° 69° (ENE) 01:38:36 435.465 / 435.565
POPSAT HIP 1 28 May 01:38:46 01:40:26 12° 296° (WNW) 01:41:52 437.405
ISS 28 May 01:38:56 01:40:38 13° 346° (NNW) 01:42:18 145.825
DUCHIFAT 1 28 May 01:39:48 01:41:25 12° 296° (WNW) 01:42:48 145.980
SPROUT 28 May 01:40:41 01:43:16 15° 270° (W) 01:45:41 437.525
KKS-1 28 May 01:40:46 01:41:37 11° 63° (ENE) 01:42:44 437.445
BEESAT 2 28 May 01:43:42 01:45:31 13° 41° (NE) 01:47:28 435.950
ITUPSAT 1 28 May 01:44:24 01:49:07 67° 74° (ENE) 01:53:52 437.325
PCSat 28 May 01:50:26 01:55:33 41° 306° (NW) 02:00:39 145.827
BEESAT 28 May 01:51:19 01:56:04 81° 77° (ENE) 02:00:51 436.000
BUGSAT 1 28 May 01:58:18 01:59:22 11° 296° (WNW) 02:00:12 437.445
SWISSCUBE 28 May 02:00:02 02:04:47 76° 258° (WSW) 02:09:32 437.505
TISAT 1 28 May 02:00:26 02:02:13 12° 271° (W) 02:03:46 437.305
SO-50 28 May 02:02:26 02:04:57 15° 109° (ESE) 02:07:45 436.795
PHONESAT 2.4 28 May 02:04:33 02:07:01 18° 149° (SSE) 02:09:33 2401.200-2431.200
